GFSSE_500_spd_057.txt.gz
Wind_Speed
37 34 41 41 36 33 32 31 28 25 24 23 23 22 21 20 19 19 18 17 15 15 15 14 14 15 16 16 13 13 11 12 12 11 11 10 9 10 10 10 10 9 9
22 26 36 52 36 29 30 31 29 26 25 24 24 23 23 18 16 20 17 17 16 16 18 17 17 16 16 14 13 12 12 13 12 12 11 11 12 13 13 12 13 13 12
54 34 18 34 28 28 31 32 30 28 28 26 24 23 23 22 18 18 18 20 18 19 19 18 18 16 15 14 13 12 13 12 13 12 11 11 12 12 12 12 12 13 12
51 50 37 15 32 32 35 31 29 28 30 31 29 26 24 21 19 17 19 19 22 23 22 20 16 15 15 14 13 14 13 12 12 10 10 11 10 10 9 9 10 10 9
54 56 59 39 27 35 36 37 34 35 32 32 30 28 23 21 20 20 19 21 21 22 23 21 19 18 16 16 15 13 13 11 12 13 13 13 13 9 10 13 13 12 12
48 55 60 52 39 50 40 41 37 36 31 28 26 23 20 20 21 21 22 23 21 22 22 23 21 18 17 17 14 12 14 11 11 11 10 9 9 9 8 7 8 9 10
21 25 36 34 27 35 29 35 41 37 31 27 24 22 22 24 24 24 26 25 22 21 22 22 20 19 18 17 14 11 11 12 12 9 8 5 6 7 8 11 12 13 15
17 15 23 33 14 38 25 29 41 32 27 28 27 25 26 27 28 29 29 28 23 19 21 21 20 18 18 17 15 8 9 9 7 7 5 5 7 10 12 13 16 18 18
13 16 23 20 15 14 24 24 28 22 27 30 27 27 27 29 29 28 30 29 25 18 18 18 18 19 16 14 14 6 5 8 7 5 6 8 11 12 13 15 15 17 20
14 20 23 24 19 20 23 28 35 29 34 32 27 27 26 27 32 34 30 27 26 22 17 18 20 15 12 10 8 6 8 4 7 8 9 11 13 14 14 17 18 20 23
18 22 27 23 22 20 21 28 26 35 33 30 30 27 27 30 33 37 33 24 24 21 19 18 13 11 11 8 6 6 6 6 6 8 11 12 13 15 18 20 24 26 29
19 22 25 21 17 21 20 17 14 16 32 32 33 31 25 30 37 41 38 33 27 22 19 16 12 12 9 7 6 4 6 7 7 11 12 15 17 19 23 25 27 28 28
19 22 23 23 19 20 18 18 20 19 17 25 30 30 35 29 37 31 37 31 30 24 19 15 13 11 9 8 7 8 6 9 11 12 14 16 20 22 24 25 26 28 30
20 20 22 23 21 22 20 24 18 21 24 20 25 27 32 30 30 40 30 34 26 22 22 18 14 11 8 11 10 9 9 11 12 13 16 19 20 20 21 24 27 29 30
23 25 24 24 24 22 26 21 29 27 28 29 28 26 17 21 28 31 38 26 21 23 17 16 13 12 11 12 11 11 12 11 14 15 17 18 18 20 23 24 26 27 28
21 26 26 24 24 27 21 25 28 26 29 34 30 26 23 17 27 25 26 22 24 18 16 15 13 12 14 12 12 12 14 14 16 17 18 19 20 22 24 26 28 30 32
7 7 15 19 23 22 19 22 22 22 20 15 22 25 21 22 23 23 25 25 17 13 14 14 16 14 13 12 13 14 16 18 18 20 22 22 24 26 28 30 33 35 36
20 15 8 15 16 22 25 23 18 20 16 19 22 19 11 13 16 27 25 19 13 11 13 14 14 13 12 12 16 17 20 21 21 22 23 25 29 32 32 33 37 40 41
20 21 15 7 14 18 20 20 21 19 23 23 20 17 11 18 26 22 18 15 12 11 13 14 13 13 13 16 18 20 21 22 24 25 29 31 33 35 36 41 44 44 46
17 18 21 21 18 6 10 7 10 14 16 17 20 23 28 23 18 15 11 11 14 14 15 13 12 14 17 21 23 22 24 26 24 26 30 34 38 40 43 47 50 50 52
13 14 15 17 16 18 16 17 18 16 19 19 19 17 15 11 10 10 11 12 14 13 12 13 15 19 23 25 27 28 27 27 28 31 35 38 39 41 43 47 50 52 52
9 12 13 15 14 14 13 12 10 9 11 11 12 11 10 9 9 9 12 14 14 12 13 16 21 23 26 28 28 31 32 32 33 35 36 38 42 44 50 54 55 57 56
6 8 11 13 13 12 12 11 9 8 8 7 7 7 8 8 11 13 14 12 11 13 15 19 24 27 30 31 31 33 33 34 36 37 41 46 52 55 54 58 59 60 60
7 8 8 8 7 6 6 7 8 7 5 4 6 7 10 12 13 14 13 12 14 17 19 23 25 29 30 31 33 36 35 35 37 42 45 49 52 54 60 65 60 65 66
6 7 7 6 7 5 5 5 5 5 5 3 5 8 11 11 13 12 13 14 16 19 24 24 26 29 30 33 34 31 37 40 40 48 50 50 55 61 69 72 66 72 71
7 7 5 6 6 5 5 5 6 8 8 8 9 12 15 15 15 16 16 19 22 23 24 27 28 30 30 29 36 39 41 41 41 43 50 57 62 63 64 67 72 78 70

GFSSE_500_spd_060.txt.gz
Wind_Speed
47 53 38 41 52 52 37 34 31 30 28 31 28 24 23 23 19 19 19 19 19 19 17 17 15 14 14 14 14 13 13 13 13 13 12 12 11 11 10 11 10 10 9
30 45 42 55 54 43 42 36 31 29 27 30 29 26 25 22 20 18 20 17 16 17 16 17 16 16 15 15 15 14 12 13 14 13 13 13 12 11 12 11 11 11 11
40 40 45 33 23 45 45 34 34 29 28 32 29 27 26 26 23 20 20 20 20 19 18 18 17 17 17 16 16 15 13 13 14 12 12 10 9 10 9 8 9 9 8
40 44 53 56 28 23 36 39 31 31 33 32 32 29 27 26 24 22 20 19 20 22 22 21 20 17 15 15 16 14 14 15 13 13 12 10 10 10 9 7 7 6 6
40 43 43 52 50 28 25 30 33 36 37 35 32 30 28 28 25 22 20 20 21 22 22 22 21 18 16 17 16 15 16 14 13 13 12 11 11 9 8 8 7 6 6
39 37 37 48 49 33 30 33 38 44 38 36 33 30 31 29 24 18 21 21 21 21 22 22 20 21 21 18 16 15 16 15 15 11 9 7 6 5 4 4 6 7 8
39 40 38 40 28 31 30 50 39 43 41 37 35 33 27 20 19 20 21 23 23 22 22 21 20 20 20 18 18 18 15 13 11 8 6 4 3 4 5 7 8 9 10
43 46 45 30 19 25 28 25 33 43 44 40 36 32 26 23 23 23 23 25 25 24 24 22 21 21 18 18 22 19 12 10 6 4 4 5 5 6 7 9 10 10 12
15 30 38 24 21 25 31 32 27 41 47 39 35 32 26 25 25 25 27 27 27 27 26 21 21 23 20 16 16 14 10 8 5 5 6 6 8 8 9 9 11 13 16
14 15 25 20 16 16 24 27 27 26 35 37 36 27 25 24 26 26 27 27 26 27 25 21 21 21 19 13 14 13 11 9 6 8 7 5 8 10 10 12 15 17 18
10 15 19 19 20 14 20 21 24 20 24 28 27 28 26 20 26 27 24 31 35 33 27 30 23 20 19 13 14 10 9 9 8 8 7 8 10 11 12 15 18 19 18
14 19 22 20 26 22 15 17 7 10 19 26 28 29 25 27 25 20 30 33 40 33 27 30 21 19 17 13 12 9 11 10 9 8 9 10 11 14 16 16 15 15 15
13 21 23 21 23 23 20 15 8 8 23 11 24 19 32 29 32 33 32 32 40 33 30 28 21 19 15 15 12 13 12 10 10 11 11 11 14 15 13 14 15 16 17
15 20 23 23 19 18 15 17 12 14 15 16 15 17 26 30 28 33 27 24 34 31 30 25 21 18 16 14 16 14 13 12 11 12 11 13 15 13 14 16 16 18 20
12 20 23 26 21 22 22 19 16 19 18 16 21 18 19 24 27 23 19 26 30 30 26 27 27 23 16 15 19 15 14 12 12 12 13 13 13 14 15 17 19 22 25
9 17 24 28 27 25 27 24 31 23 19 25 22 24 23 27 23 22 18 24 29 28 25 24 19 15 15 16 17 13 12 14 14 14 14 15 15 16 18 22 24 27 29
7 14 22 27 30 31 28 27 23 22 26 26 26 28 26 22 22 18 15 22 24 28 25 20 18 17 17 18 16 15 14 16 18 17 18 19 18 20 23 25 29 31 35
11 4 19 24 30 33 29 26 23 24 23 23 20 17 19 23 21 14 18 22 28 26 19 19 17 18 19 18 15 15 16 18 19 19 21 22 22 24 26 29 32 34 37
15 14 3 16 23 28 30 25 26 23 19 20 20 16 21 22 20 16 20 28 24 16 15 14 15 18 17 14 15 17 20 22 23 22 25 24 24 26 30 32 34 36 40
14 14 16 15 10 17 19 23 24 20 21 23 24 22 23 26 23 26 28 24 19 15 14 17 18 17 16 15 17 21 24 24 27 29 29 27 28 30 33 34 36 39 45
10 12 12 18 16 18 10 7 13 19 24 25 26 28 25 24 30 32 24 16 17 18 17 18 19 18 17 18 21 24 23 26 27 31 32 32 33 35 35 38 44 47 50
7 11 12 12 13 11 14 14 16 14 14 14 17 21 24 23 20 18 18 19 19 20 19 18 16 18 20 21 24 27 27 26 27 30 32 34 35 36 40 39 39 45 51
5 7 10 11 11 13 12 11 11 12 12 10 8 10 13 14 15 17 17 19 19 19 18 17 18 19 22 24 27 28 28 28 30 30 32 34 38 41 44 45 47 55 58
3 4 6 7 7 9 11 12 12 12 9 8 10 12 13 16 20 19 19 19 19 18 18 18 20 21 24 27 27 29 30 31 29 29 35 37 40 42 40 44 50 56 61
1 2 0 2 3 4 6 6 6 5 6 5 5 8 12 15 19 17 18 17 20 21 21 20 22 25 27 28 32 33 34 33 31 35 35 38 45 47 50 51 54 59 62
5 4 3 2 3 4 2 3 4 3 1 4 5 9 12 13 14 17 19 21 23 23 23 22 23 26 29 32 34 35 36 31 38 36 36 40 43 46 52 56 61 65 67

GFSSE_500_spd_063.txt.gz
Wind_Speed
34 38 46 35 35 44 44 38 37 27 19 23 25 23 24 24 24 22 21 19 18 18 17 16 15 14 12 11 11 11 12 12 12 13 13 12 10 10 9 10 9 8 8
35 40 40 42 45 50 46 40 46 36 30 31 28 23 25 24 25 21 20 20 19 16 17 16 15 13 13 13 13 11 12 13 12 12 13 12 11 9 10 10 9 8 8
40 41 37 38 38 36 34 36 40 39 37 34 25 22 23 21 24 21 20 19 18 19 17 17 16 16 15 15 14 14 13 14 13 14 14 12 11 11 10 9 7 6 6
33 34 34 33 37 41 38 27 34 35 36 29 26 26 24 24 24 23 20 19 20 19 20 20 19 17 16 17 15 16 15 14 15 13 14 13 12 11 10 8 8 7 7
25 27 32 34 33 37 46 36 36 38 35 23 29 28 26 23 26 24 23 21 21 18 20 21 20 20 19 17 16 19 18 15 15 14 13 11 9 8 8 7 6 5 4
29 30 30 34 28 37 44 38 27 32 40 42 33 31 29 28 29 26 27 26 19 18 17 21 22 22 23 22 21 21 18 16 15 15 10 9 6 7 6 4 5 6 6
26 27 30 33 39 39 40 38 35 38 41 39 36 34 30 33 30 29 32 23 18 18 19 20 20 23 23 22 22 20 20 19 16 12 7 7 7 6 5 6 5 6 7
26 29 32 37 42 40 39 43 23 42 36 43 35 35 35 33 30 27 20 18 19 22 21 21 21 22 23 23 21 22 20 18 12 9 7 8 7 6 6 7 7 8 10
28 30 37 42 34 34 26 29 31 31 35 40 43 39 37 33 29 23 20 22 23 24 24 24 21 22 24 25 26 20 15 13 11 9 10 9 8 8 8 8 9 12 15
25 29 43 31 29 38 28 20 26 31 34 50 44 41 35 33 30 24 25 25 25 24 24 23 24 24 23 27 23 16 16 12 12 12 13 11 9 9 9 10 12 15 18
9 7 15 12 24 20 17 21 18 24 29 40 39 40 41 36 24 23 25 25 19 23 26 28 27 25 24 24 18 15 14 14 15 14 13 11 11 9 11 13 15 16 14
5 8 8 12 15 19 21 18 17 23 18 27 36 35 33 23 22 24 21 15 21 25 30 33 32 26 26 22 20 16 16 17 16 14 13 12 12 12 13 14 12 12 13
13 13 17 17 17 23 25 20 8 14 14 21 26 26 25 21 24 25 28 26 24 28 24 30 29 29 28 21 21 17 16 17 15 14 14 14 14 13 12 11 10 12 13
11 16 18 20 19 20 23 15 11 11 6 15 17 21 19 16 23 33 24 24 28 26 18 28 34 30 23 21 21 19 20 18 16 15 15 16 14 14 12 12 12 13 16
11 18 21 22 23 19 17 13 13 11 10 12 15 15 18 20 20 22 23 22 23 20 18 23 30 31 24 22 21 23 22 18 15 17 17 16 15 15 15 15 15 18 20
9 15 20 21 19 20 21 17 17 19 18 17 16 14 18 20 18 14 18 24 22 17 22 26 30 28 27 22 23 22 19 16 16 17 18 17 19 18 17 17 18 21 23
8 11 18 20 31 29 23 20 24 18 23 22 22 30 21 20 22 20 22 24 24 22 26 26 28 25 26 23 23 23 19 16 18 19 20 20 22 21 21 21 22 24 26
4 9 14 21 24 29 26 29 25 30 23 25 21 27 25 23 22 21 23 24 22 26 28 27 27 26 24 23 24 21 17 17 19 21 22 24 24 25 28 28 27 27 28
7 6 8 20 25 33 34 29 30 27 29 25 27 26 22 20 21 23 25 26 22 25 28 30 25 25 24 22 22 20 17 17 21 23 25 26 27 30 33 34 33 32 32
5 8 8 10 21 25 27 34 33 30 27 24 28 29 23 20 22 25 26 26 24 29 28 26 22 24 20 21 22 21 20 21 22 26 27 27 29 31 34 37 37 34 37
4 5 7 5 10 19 23 24 31 34 29 26 28 27 24 21 24 30 29 22 28 26 21 19 19 19 20 20 21 21 20 23 25 28 29 29 29 31 34 35 33 36 39
2 2 4 8 10 12 11 7 17 26 29 29 28 28 29 29 28 30 25 28 26 23 23 20 21 21 21 19 20 21 23 26 28 29 30 32 33 33 33 36 36 38 36
4 1 4 6 8 7 9 11 14 13 7 12 15 16 15 15 19 24 27 22 21 23 24 23 22 22 21 21 23 25 26 27 27 30 32 32 33 33 34 35 34 38 39
5 5 3 5 7 7 8 8 8 7 10 14 14 15 16 17 19 23 24 23 24 24 25 24 22 23 23 24 25 27 29 31 31 30 32 32 34 37 38 38 37 40 45
3 4 4 4 5 6 7 10 10 10 10 11 12 12 13 15 19 21 23 21 21 24 25 24 23 24 25 29 31 33 33 33 36 36 34 31 35 39 40 41 42 45 49
2 2 5 5 5 5 7 7 8 8 9 11 13 14 14 15 16 21 23 20 24 26 25 26 26 27 29 30 30 33 36 36 32 30 31 39 38 39 40 44 47 50 52

GFSSE_500_spd_069.txt.gz
Wind_Speed
38 42 42 44 44 31 36 29 33 35 35 30 22 35 38 35 27 20 18 14 11 11 10 10 8 9 10 10 10 11 10 12 12 13 15 17 17 15 13 10 10 10 10
35 38 37 43 42 40 29 33 30 27 37 30 26 30 33 27 23 21 18 16 13 12 9 9 8 9 9 13 14 12 13 14 14 15 16 17 16 13 11 9 8 8 8
30 27 34 42 39 40 35 33 27 26 36 33 30 22 30 23 24 22 22 17 14 11 10 8 8 9 11 12 14 13 15 15 15 14 13 15 13 12 11 9 8 7 5
25 28 28 37 46 36 27 32 28 27 34 32 32 30 28 28 26 21 20 16 13 11 10 9 10 11 15 15 15 11 18 15 14 14 14 14 13 12 12 9 7 6 5
22 25 26 31 34 42 38 31 26 30 37 33 37 36 36 32 25 24 20 16 13 11 12 11 12 16 18 17 19 17 18 14 15 15 15 15 15 13 10 7 7 6 5
20 23 19 29 28 11 20 23 22 20 23 27 29 38 39 37 27 26 20 20 18 17 14 15 17 14 15 17 19 16 17 17 17 16 17 15 15 12 10 8 8 6 6
21 21 26 20 25 19 15 20 21 16 18 18 29 41 42 33 31 25 24 22 19 14 17 18 16 12 13 15 17 17 18 19 18 16 17 17 14 11 10 9 9 8 7
21 21 24 21 23 27 23 23 22 20 20 23 20 36 35 35 31 30 25 23 17 15 18 18 17 14 17 18 18 18 19 19 18 18 18 18 13 12 12 11 10 10 8
20 24 24 26 27 29 27 27 23 24 18 26 24 34 35 34 32 28 26 22 19 17 15 17 18 17 20 20 17 20 20 19 20 20 18 14 13 14 14 13 11 11 9
24 28 27 27 30 28 24 28 28 28 28 24 26 28 32 35 34 31 26 23 20 17 19 17 18 19 20 19 18 21 20 21 21 25 14 16 17 15 15 14 12 11 11
13 17 18 26 30 39 24 29 35 29 34 36 21 20 36 41 32 32 27 25 23 21 20 21 19 16 18 19 19 24 22 20 20 14 17 19 18 17 16 14 13 12 13
11 14 19 20 16 21 36 34 39 40 40 39 24 27 25 30 42 34 30 27 24 24 23 23 19 16 17 20 23 24 24 20 17 18 19 20 19 18 17 15 14 14 13
10 12 15 9 4 13 22 33 35 35 33 23 24 29 31 31 39 32 33 25 25 26 20 20 20 18 20 20 24 23 23 21 21 21 21 21 20 18 17 16 15 16 14
8 7 11 7 4 13 13 30 16 19 23 23 25 27 33 37 44 41 34 30 30 26 23 24 24 24 23 21 20 24 21 23 22 23 22 21 19 18 15 15 16 15 15
11 12 8 10 11 12 12 17 17 13 15 24 20 17 25 31 41 33 29 35 34 29 24 21 23 19 21 19 20 21 24 24 25 24 23 21 18 17 16 17 15 16 17
13 12 11 11 13 14 12 12 15 16 15 20 21 17 19 31 29 28 31 32 32 31 27 22 22 23 20 19 19 23 25 28 24 25 23 20 19 17 17 18 18 18 20
8 9 11 9 12 16 19 13 12 17 16 25 23 23 23 25 24 24 27 30 30 28 29 28 22 22 21 22 18 22 23 24 25 24 24 19 17 19 18 21 23 24 25
12 11 12 12 11 16 12 19 16 17 22 18 16 22 27 28 28 21 24 24 23 23 26 24 19 22 22 22 22 25 28 25 26 25 22 19 18 19 23 24 28 31 29
11 13 11 11 12 14 18 20 20 22 22 19 26 21 26 25 21 21 23 24 24 25 27 27 24 24 23 22 23 28 28 26 25 24 22 19 22 23 25 29 30 31 31
10 14 14 13 7 24 20 23 24 19 22 16 20 18 26 28 21 21 26 24 26 29 31 30 25 27 25 25 27 32 24 21 24 25 23 24 26 26 28 30 31 33 34
11 13 14 13 9 15 28 31 28 28 32 25 23 22 17 23 25 26 24 27 30 33 32 31 27 28 27 27 30 32 25 26 28 27 26 28 28 28 30 32 33 33 32
11 11 11 11 9 7 11 22 23 27 30 28 28 26 23 24 26 25 27 30 34 32 32 30 31 29 30 28 29 27 28 27 30 29 29 29 31 30 32 32 31 33 34
9 11 9 9 6 3 2 4 19 30 35 35 29 26 31 30 26 27 32 35 31 32 34 32 26 23 29 23 28 29 26 27 31 29 30 31 32 32 33 34 36 37 37
9 9 9 6 6 5 2 2 2 5 20 26 31 30 27 28 30 30 32 30 29 34 29 22 25 30 28 24 25 26 26 29 31 30 32 33 32 34 35 38 34 37 34
7 8 7 6 6 6 5 3 1 3 3 8 12 29 32 32 29 31 32 32 27 29 25 27 26 30 26 24 26 29 29 29 29 32 34 37 39 36 37 37 40 40 41
9 6 5 6 5 7 8 5 3 2 1 4 7 11 13 15 16 18 21 21 25 23 24 26 28 27 29 28 30 29 31 31 33 37 40 39 37 37 37 40 41 41 43

GFSSE_500_spd_072.txt.gz
Wind_Speed
28 30 36 40 41 41 41 37 38 42 37 36 31 25 21 26 29 31 23 18 18 15 10 7 4 3 3 2 4 4 6 6 8 9 8 10 13 14 14 14 13 12 12
24 25 26 33 39 43 43 37 35 35 35 32 37 35 21 28 28 31 33 29 20 15 11 7 5 4 4 6 7 8 10 10 10 9 10 12 13 12 13 13 14 12 11
27 24 22 25 34 43 44 41 41 30 30 33 37 30 25 27 31 32 31 27 21 17 13 11 7 6 6 9 9 9 13 12 12 10 12 15 15 13 12 12 13 11 9
27 25 22 24 28 33 43 39 43 28 24 22 29 29 30 23 31 28 27 23 22 20 20 15 12 10 10 11 13 13 11 13 13 11 14 15 13 12 12 11 12 10 10
27 26 26 30 29 38 35 40 35 23 20 25 22 32 25 31 32 30 31 26 25 20 17 15 12 11 10 13 14 15 13 14 13 14 16 16 13 11 13 12 12 11 10
21 26 30 27 33 28 27 34 33 26 23 23 26 28 29 30 34 32 31 27 25 22 18 15 13 12 13 13 15 14 13 14 14 15 17 15 13 13 13 12 12 11 10
19 24 25 14 16 14 10 19 21 24 24 19 24 29 29 35 38 37 36 30 28 23 20 16 13 16 16 15 14 14 12 13 17 16 16 17 15 15 14 13 12 12 11
19 20 22 18 16 12 18 13 20 23 20 20 27 28 32 48 43 42 36 26 27 23 21 16 15 17 18 15 13 13 14 16 17 17 17 19 17 14 13 14 13 13 12
20 22 24 22 21 19 17 27 22 24 23 23 23 17 30 44 45 41 29 30 26 25 20 17 15 16 18 16 15 15 17 18 19 17 19 21 16 14 15 15 14 14 12
21 25 28 22 22 24 25 25 28 27 25 22 16 14 22 43 42 35 32 25 29 23 21 20 14 16 16 15 19 19 18 20 20 20 22 21 17 15 16 15 15 14 13
19 15 16 20 26 26 28 30 31 30 27 24 23 20 25 34 41 36 32 31 31 27 23 20 17 18 16 19 20 20 18 22 21 21 23 20 17 18 17 16 17 15 14
16 16 18 13 18 26 37 38 29 25 26 28 25 32 34 36 37 37 37 34 32 28 25 18 20 19 20 16 18 19 23 23 25 22 20 18 19 19 19 18 17 16 14
16 14 15 13 18 12 24 40 40 41 41 39 34 28 34 43 34 41 38 34 32 28 23 21 24 23 23 19 18 20 23 23 25 20 21 21 20 21 20 19 16 15 14
12 13 15 15 11 5 12 19 37 44 42 30 36 36 31 34 38 41 42 38 34 30 25 25 26 25 22 21 24 22 24 24 26 21 23 22 21 21 22 18 15 14 14
11 14 16 19 15 4 2 12 30 23 29 38 34 37 31 32 35 32 48 42 36 30 28 27 29 26 23 20 21 23 22 22 21 24 25 24 21 21 21 17 16 15 14
9 9 10 14 9 11 6 7 18 19 27 30 29 25 24 30 34 32 50 38 36 33 32 30 30 26 21 24 23 22 20 22 24 24 26 25 23 23 19 18 17 17 16
8 9 8 5 10 10 8 7 10 15 19 17 27 26 24 28 32 44 47 42 35 32 36 35 32 27 24 24 24 23 20 22 26 26 28 27 24 24 19 18 19 18 20
6 10 12 10 8 13 14 16 15 16 17 17 30 29 23 20 28 37 42 35 32 32 33 33 33 32 27 25 24 24 23 26 29 31 27 27 25 21 21 20 19 22 22
8 8 11 13 10 12 17 18 20 19 16 19 18 23 24 21 22 23 28 28 29 30 30 32 33 28 25 26 26 26 25 28 29 29 28 26 24 22 20 24 23 26 28
11 10 9 11 14 9 16 20 24 20 15 21 21 17 23 25 27 22 23 22 23 26 27 27 27 31 31 29 27 28 27 30 31 30 30 26 25 24 26 27 27 29 28
11 10 10 11 12 8 18 23 24 17 18 18 16 20 15 22 24 21 19 19 22 24 25 27 31 34 33 32 30 29 28 30 32 33 30 28 31 29 28 31 31 31 31
11 9 8 10 10 6 15 20 23 25 23 23 23 24 22 21 19 26 27 24 23 27 25 31 33 34 33 29 28 28 29 32 30 26 28 31 30 30 31 32 32 32 32
10 8 7 9 9 6 0 11 21 28 25 25 30 28 25 26 27 23 27 28 29 31 32 34 35 34 33 29 31 27 29 32 32 34 34 32 31 32 34 33 32 33 35
13 9 7 7 7 7 4 2 4 6 23 31 32 33 31 30 28 27 34 31 27 32 36 33 36 35 29 25 31 31 31 30 34 29 28 29 32 35 34 35 36 39 40
15 12 8 8 8 8 8 7 4 4 4 15 32 33 35 37 31 29 32 30 31 32 31 31 33 30 26 24 24 28 30 31 34 27 27 31 35 38 36 35 39 40 43
13 13 9 7 8 9 9 8 6 6 4 4 5 17 38 41 37 32 33 33 34 33 32 26 24 24 25 25 28 28 25 24 25 27 34 36 38 41 41 41 45 45 44

GFSSE_500_spd_075.txt.gz
Wind_Speed
31 28 28 27 30 36 40 42 42 39 39 42 34 31 27 29 27 22 21 25 23 21 17 14 11 9 7 7 6 5 5 6 7 7 6 7 8 10 12 12 10 10 11
24 25 26 24 26 31 36 42 44 41 38 39 37 37 30 29 28 24 25 26 23 21 18 16 13 11 11 10 6 5 7 8 8 7 5 7 10 12 11 11 10 9 10
29 29 28 26 25 27 34 42 45 43 39 41 39 39 37 31 26 31 30 31 30 22 20 18 16 13 11 10 9 10 8 9 9 7 5 7 10 12 12 11 12 9 9
30 31 30 27 26 26 29 34 42 44 36 29 33 39 42 41 30 31 31 28 29 29 23 17 15 13 11 10 9 10 11 10 9 8 7 9 11 13 13 13 13 10 9
30 30 27 28 32 29 32 40 34 35 42 40 26 34 37 36 33 29 33 27 28 26 23 21 20 16 15 12 11 13 13 12 11 11 11 11 11 13 13 13 12 11 9
30 29 27 25 26 33 41 23 25 32 37 21 29 25 27 37 35 26 33 29 26 24 25 23 20 18 15 13 15 15 12 13 13 13 14 11 12 14 12 12 13 11 10
27 29 25 22 21 17 27 44 36 31 37 21 20 17 23 29 28 32 33 33 29 34 25 24 22 18 16 15 16 16 12 11 13 15 14 15 15 12 13 13 14 12 10
27 30 27 20 21 18 11 16 28 24 26 22 21 23 21 26 24 31 34 35 31 34 28 24 21 19 17 18 16 14 13 14 15 16 16 15 14 14 15 13 14 12 11
29 28 27 19 20 19 12 12 23 28 30 24 24 22 25 23 27 30 37 36 40 38 30 26 22 21 19 18 17 16 15 15 17 18 18 15 15 15 16 14 13 13 11
29 26 20 20 20 21 19 19 24 31 29 26 22 22 25 22 34 43 43 44 42 35 27 25 23 23 19 17 18 18 18 17 18 19 17 16 16 21 16 14 14 15 13
28 23 18 18 12 20 23 23 18 26 25 27 24 24 22 21 27 37 53 47 36 31 29 26 24 23 20 18 17 19 18 20 18 22 17 16 19 21 16 16 16 16 15
25 22 17 14 12 12 16 26 24 31 32 30 33 27 25 24 24 46 47 41 34 30 31 29 25 23 22 19 17 17 17 22 21 18 19 20 21 18 17 17 18 17 16
24 20 16 13 14 14 21 22 30 36 32 35 36 32 29 23 24 34 42 40 32 32 31 29 25 25 24 22 18 18 18 21 23 23 20 22 18 19 20 20 19 19 16
21 18 19 16 12 6 10 22 38 40 41 35 30 29 27 25 32 31 43 38 35 34 32 30 28 26 25 22 21 19 24 22 22 24 23 22 20 21 22 21 19 18 15
16 17 15 15 14 9 8 9 18 42 48 40 41 44 39 37 36 36 42 36 39 36 35 32 28 27 25 22 22 23 23 24 23 25 24 24 23 23 23 20 20 16 13
15 15 14 14 15 7 8 5 10 20 39 43 36 38 45 41 39 38 42 41 44 40 37 34 32 27 25 26 24 26 25 25 25 23 24 25 24 24 22 18 19 15 13
17 10 12 13 14 12 11 5 7 19 24 28 39 39 43 40 35 36 39 41 42 44 43 34 32 30 28 29 26 27 26 26 26 24 25 27 25 24 22 20 18 18 16
16 14 11 13 12 13 10 8 6 11 14 22 25 35 31 28 32 31 35 39 42 48 45 36 34 34 32 30 31 30 28 27 27 26 27 29 27 24 23 20 17 18 21
16 16 14 13 13 13 12 14 16 12 14 12 20 29 35 31 32 36 38 41 42 53 37 31 30 33 30 29 36 32 30 29 28 29 29 30 30 25 24 22 24 21 22
14 15 15 14 12 13 12 16 18 18 15 14 16 24 30 30 30 30 33 41 39 47 33 29 32 33 31 35 37 32 31 30 31 30 30 32 30 27 26 24 23 25 24
14 15 14 15 13 11 10 12 14 20 21 14 10 19 22 20 21 20 16 18 30 32 29 30 30 29 29 31 32 35 35 33 30 28 31 33 31 30 27 27 28 26 27
16 13 14 14 13 10 10 15 18 20 16 18 14 17 12 15 17 18 16 18 21 22 24 26 25 26 29 31 34 34 32 30 27 30 31 33 34 31 29 31 28 28 29
13 12 13 14 11 8 9 8 20 18 25 25 21 23 21 18 17 18 16 17 24 27 23 24 27 26 28 31 31 28 18 14 19 23 30 32 31 32 30 28 29 30 32
14 13 12 13 13 8 6 6 7 10 19 28 29 28 29 27 24 22 24 23 23 27 25 26 28 31 29 27 28 22 25 23 22 20 26 31 31 30 29 30 32 34 36
16 13 11 11 11 10 9 9 10 11 10 11 18 27 28 28 28 28 27 26 24 29 28 28 28 31 30 28 27 25 25 21 27 32 28 28 25 29 31 33 34 37 40
14 9 10 11 10 10 11 10 11 11 11 9 8 9 25 36 34 35 31 30 26 25 29 32 30 28 28 22 26 26 25 25 23 25 31 34 32 28 30 33 35 37 45